H-2A DEB, 43068

Orbit data source: Space-Track

H-2A DEB, 43068 is space debris in SSO originally from a launch on Sat, 23 Dec 2017 UTC launched from the Tanegashima Space Center (TNSTA). Debris objects in space refer to the collection of defunct objects orbiting the Earth. Examples of debris include non-operational satellites, rocket bodies, and fragments generated from explosions, collisions, or faulty payload assembly.

Loading next visibility...
H-2A DEB details
Identifier
43068, 2017-082D
Orbit
SSO
Last TLE update12 hours ago
Origin
Flag of JPJAXA (JP / JPN)
ManufacturerMELCO
MissionSpacecraft
Bus & MotorUnknown
Mass~50 kg wet, ~50 kg dry
Launch date (UTC)
2017-12-23 (7 years ago)
Launch vehicleUnknown
Launch site
Tanegashima Space Center (TNSTA)
Object type
Payload
Rocket body
Debris
Shape & HBRTrunc Cone, 0.9 m
Radar Cross Section0.533 m², Large (>1 m²)

Expand to show TLE details & history

TLE from 12 hours ago
0 H-2A DEB
1 43068U 17082D   24338.84984649  .00049643  00000-0  18720-2 0  9997
2 43068  97.9813  99.9873 0125944  95.2277 266.3342 15.19699667377105
Epoch: 2024-12-03T20:23Z
Definitive object data (Epoch: 2024-12-03T20:23:46.736Z)
Latitude-0.00009°
Longitude80.88914°
Altitude516.453 km
Speed7.602 km/s
True Right ascension06h 39m 56s
True Declination0° 00' 00"
Sunlit
Object was in full shadow at TLE epoch
Visualization TLE readout
Latitude31.95846°
Longitude-93.60536°
Altitude459.398 km
Speed7.669 km/s
Apparent Right ascension18h 33m 30s
Apparent Declination-2° 32' 36"
Sunlit
Object is in daylight
Visualization observer readout
Local Sidereal Time05:59:44
Azimuth346.263° N
Elevation-51.85°
Doppler factor1
Orbital elements
Apogee altitude590.412 km
Perigee altitude417.066 km
Semi-major axis6,881.876 km
Eccentricity0.0125944
Inclination97.9813°
RAAN99.9873°
Arg. of periapsis95.2277°
True anomaly264.89554°
Mean anomaly266.3342°
Eccentric anomaly265.61471°
Mean motion3.80174 °/min
BSTAR0.001872
Orbital period94.69 mins
Loading maneuver chart data...
Loading historical data...
Loading historical data...
Loading historical data...
Loading historical data...
Loading historical data...
Loading historical data...
Loading historical data...
Other satellites on launch #82 in the year 2017 (2017-12-23 UTC)

H-2A DEB Visibility forecast

Observer location: undefined°, undefined

Span
Click to sort rows by Start time (UTC) header in descending order
Start Az.
Max El. time (UTC)
Max El. Az.
Max El.
End time (UTC)
End Az.
4 mins2024-12-04 20:40:40.320Z51.357° ENE2024-12-04 20:42:40.320Z109.88° ESE25.526°2024-12-04 20:44:40.320Z154.241° SSE
|